Activity Log for Mar, 07 2019

Back to Activity Log Search


Incident Time Nature Address
19F025211 00:05:47 30 TRAFFIC STOP 33XX W COLISEUM BLVD
19F025212 00:07:52 129 52XX EASTWICK DR
19F025214 00:12:06 23JO 70XX ORDWAY DR
19F025215 00:14:22 34 TRAFF HAZARD 24XX W DUPONT RD
19F025216 00:16:10 48,35 52XX N STONY RUN LN
19F025217 00:22:21 25HS HIT SKIP 18XX BEACON ST
19F025218 00:26:49 51JO 63XX LIMA RD
19F025219 00:29:30 23JO 11XX FOX HOUND WAY
19F025220 00:31:11 46,96 2XX W PACKARD AVE
19F025221 00:54:37 43 DISTURBANCE 9XX E WASHINGTON BLVD UNIT A
19F025222 01:00:53 40A AUDIBLE 75XX SOUTHTOWN XING
19F025223 01:09:27 30 TRAFFIC STOP W COLISEUM BLVD & SPEEDWAY DR
19F025224 01:17:10 911 HANG UP 82XX LAKESIDE CT
19F025226 01:24:58 43 DISTURBANCE 73XX INNOVATION BLVD
19F025227 01:46:25 47 REMOVE ITEMS 50XX MADIERA DR
19F025228 01:50:51 30 TRAFFIC STOP 62XX BLUFFTON RD
19F025229 01:57:00 48,36 14XX LAKE AVE
19F025230 01:59:09 23 VANDALISM 8XX CANDLEWOOD WAY
19F025231 02:03:47 40A AUDIBLE 67XX OLD TRAIL RD
19F025232 02:20:47 40A AUDIBLE 25XX BROADWAY
19F025233 02:25:14 40A AUDIBLE 62XX W JEFFERSON BLVD
19F025234 02:32:46 48,36 10XX HUESTIS AVE
19F025235 02:36:16 30 TRAFFIC STOP W COLISEUM BLVD & SPEEDWAY DR
19F025236 02:45:57 33,34 HOBSON RD & VANCE AVE
19F025237 02:47:04 44LM 44XX REED ST
19F025239 03:18:52 113 SHOTS FIRED 37XX NEWPORT AVE
19F025238 03:19:11 40A AUDIBLE 31XX LOWER HUNTINGTON RD
19F025240 03:51:42 113 SHOTS FIRED 4XX W WILLIAMS ST
19F025241 03:57:40 40A AUDIBLE 25XX E TILLMAN RD
19F025242 04:01:02 50IP BURG I/P 13XX E PONTIAC ST
19F025243 04:06:23 50JO 11XX HUFFMAN ST
19F025244 04:27:17 43 DISTURBANCE 57XX CHALLENGER PKWY
19F025245 04:43:14 65T SUICIDE THR 3XX E WASHINGTON BLVD
19F025246 04:52:58 48 SUSPICIOUS 9XX LADDIE LN
19F025247 05:16:28 48,35 10XX STOPHLET ST
19F025248 05:24:02 40A AUDIBLE 2XX MURRAY ST
19F025253 05:40:27 25HS HIT SKIP GOSHEN AVE & POINSETTE DR
19F025249 05:41:55 26 PI ACCIDENT LIMA RD & PROGRESS RD
19F025250 05:49:57 30 TRAFFIC STOP LIMA RD & W DUPONT RD
19F025251 06:17:05 48 SUSPICIOUS 49XX WINCHESTER RD
19F025252 06:20:28 1 MEET 10XX EDGEWATER AVE
19F025254 06:51:34 48,36 34XX EASTWOOD DR
19F025255 07:01:45 103 UNWANTED 1XX W WAYNE ST
19F025256 07:09:37 40A AUDIBLE 39XX OPTION PASS
19F025257 07:13:48 48,35 FLEETWOOD AVE & FELICIAN ST
19F025263 07:15:47 18 WORK TRAFFIC E STATE BLVD & LAVERNE AVE
19F025258 07:16:31 18 WORK TRAFFIC TRIER RD & FERNBANK DR
19F025259 07:17:14 66 MENTALLY ILL 49XX WINCHESTER RD
19F025260 07:25:28 40A AUDIBLE 39XX OPTION PASS
19F025261 07:27:48 25 PD ACCIDENT I 69 AND LIMA RD
19F025262 07:30:57 65T SUICIDE THR 32XX VICTOR LN
19F025267 07:31:39 22RN RUNAWAY 27XX HOLTON AVE
19F025264 07:33:29 46 DOMESTIC 32XX FELICIAN ST
19F025266 07:34:17 39R STOLEN RECO 39XX BUELL DR
19F025265 07:35:29 103 UNWANTED 21XX ST MARYS AVE
19F025268 08:01:12 33,34 AVONDALE DR & HAMILTON AVE
19F025269 08:06:37 48 SUSPICIOUS E WALLACE ST & S HANNA ST
19F025271 08:09:27 17 MOTOR CHECK 45XX SECRETARY DR
19F025270 08:13:35 26 PI ACCIDENT S CLINTON ST & E SUPERIOR ST
19F025272 08:19:51 57 STRONG ARM LUMBARD ST & MOLITOR ST
19F025273 08:31:00 51 THEFT 20XX BROADWAY
19F025274 08:31:06 25 PD ACCIDENT LIMA RD & BILLY DR
19F025275 08:34:34 25 PD ACCIDENT E BERRY ST & S LAFAYETTE ST
19F025276 08:41:18 17 MOTOR CHECK 100XX QUACHITA CT
19F025277 08:41:34 46 DOMESTIC 14XX VENTURA LN
19F025278 08:42:16 43 DISTURBANCE 9XX E WASHINGTON BLVD
19F025279 08:44:03 22I JUV INVEST 56XX MEADOWBROOK DR
19F025280 08:54:02 40A AUDIBLE 45XX WINSTON DR
19F025281 08:55:08 51 THEFT 29XX STINSON DR
19F025282 09:01:25 40A AUDIBLE 6XX E DUPONT RD
19F025287 09:01:53 17 MOTOR CHECK 3XX WALLEN OAKS CT
19F025284 09:02:53 25HS HIT SKIP 27XX W WASHINGTON CENTER RD
19F025283 09:04:05 48,36 VAN BUREN ST & MICHAELS AVE
19F025285 09:07:23 23,35 VAND VEH 13XX VERMONT AVE
19F025286 09:10:52 51 THEFT 76XX WYNNEWOOD LN
19F025290 09:12:19 25HS HIT SKIP 20XX MAUMEE AVE APT 308
19F025289 09:17:36 65T SUICIDE THR 11XX W BERRY ST
19F025288 09:19:04 22I JUV INVEST 72XX E STATE BLVD
19F025291 09:23:54 48 SUSPICIOUS 41XX CENTRAL DR
19F025293 09:27:04 48 SUSPICIOUS 63XX SHELL DR
19F025294 09:28:24 66V MENTAL VIOL 21XX GOSHEN RD
19F025292 09:28:57 51 THEFT 70XX HAWKSNEST TRL
19F025296 09:35:02 51 THEFT 18XX BLUFFTON RD
19F025295 09:36:00 96 BATTERY 29XX ENGLE RD
19F025297 09:37:04 17 MOTOR CHECK 27XX INDEPENDENCE DR
19F025298 09:38:44 63 CONTACT 8XX E CREIGHTON AVE
19F025299 09:43:00 16,97 8XX ECKART ST
19F025300 09:46:02 48 SUSPICIOUS 12XX KINSMOOR AVE
19F025302 09:49:33 39 STOLEN VEHIC 19XX HAZELWOOD AVE
19F025301 09:51:48 103 UNWANTED 26XX S ANTHONY BLVD
19F025303 09:56:45 66 MENTALLY ILL 21XX GOSHEN RD
19F025304 09:59:52 37 PARKING VIOL 33XX REED ST
19F025305 10:03:12 46 DOMESTIC 15XX CRESCENT AVE
19F025307 10:07:25 EMS 11XX GREENE ST
19F025306 10:10:50 66 MENTALLY ILL 22XX WEISSER PARK AVE
19F025309 10:15:03 45 NEIGHBORHOOD 2XX E DEWALD ST
19F025308 10:27:55 43 DISTURBANCE FAIRFIELD AVE & LAVINA ST
19F025310 10:31:00 38 LOST/STOLEN 35XX W FERGUSON RD
19F025312 10:38:38 18 WORK TRAFFIC 21XX FOX AVE
19F025311 10:39:32 30 TRAFFIC STOP S LAFAYETTE ST & MURRAY ST
19F025313 10:47:12 50IP BURG I/P 20XX PAULINE ST
19F025314 10:56:28 25HS HIT SKIP 30XX ABBOTT ST
19F025315 11:02:28 50 BURGLARY 75XX DECATUR RD LOT 73
19F025317 11:19:03 48 SUSPICIOUS 21XX NELSON ST
19F025318 11:21:02 25 PD ACCIDENT DELAWARE AVE & CRESCENT AVE
19F025316 11:21:28 103 UNWANTED 3XX E SUPERIOR ST
19F025319 11:22:47 70 FIRE 21XX FOX AVE
19F025320 11:31:26 30 TRAFFIC STOP S CLINTON ST & E BERRY ST
19F025321 11:35:05 96 BATTERY XX E MAIN ST
19F025322 11:38:03 17 MOTOR CHECK 11XX ELMWOOD AVE
19F025324 11:41:15 46,96 27XX MANFORD ST
19F025323 11:43:23 30 TRAFFIC STOP BROADWAY & SWINNEY AVE
19F025331 11:47:55 63 CONTACT 60XX HOLLEY OAK DR
19F025325 11:50:05 43,62 47XX TURBO TRL
19F025328 11:53:03 63 CONTACT S COLISEUM BLVD AND E WASHINGTON B
19F025334 11:53:30 16 PICK UP ITEM 57XX BAYSIDE DR
19F025326 11:57:25 46,96 50XX OLD MAYSVILLE RD
19F025327 12:01:35 48,35 8XX W CREIGHTON AVE
19F025329 12:02:23 23 VANDALISM 63XX LIMA RD
19F025330 12:03:42 63Z ZACH CHECK 28XX WAYNEDALE BLVD
19F025332 12:07:30 43 DISTURBANCE 30XX GOSHEN RD
19F025333 12:08:36 25 PD ACCIDENT E WAYNE ST & S CALHOUN ST
19F025335 12:14:20 129 6XX W OAKDALE DR
19F025336 12:18:48 103 UNWANTED 33XX W COLISEUM BLVD
19F025337 12:23:15 108 FOLLOWUP 30XX S HANNA ST
19F025338 12:26:06 46,96 58XX ROLLING HILLS DR
19F025339 12:26:32 911 HANG UP 9XX S CLINTON ST
19F025341 12:29:16 102,TX THREATS 14XX GROVE DR
19F025340 12:29:50 23,113 44XX SW ANTHONY WAYNE DR
19F025343 12:35:07 47 REMOVE ITEMS 22XX EDSALL AVE
19F025349 12:40:09 24 MISSING PERS 74XX ANTEBELLUM BLVD
19F025342 12:41:20 40A AUDIBLE 18XX BLUFFTON RD
19F025346 12:47:43 129 45XX MORNING WIND PL
19F025347 12:47:57 129 45XX MORNING WIND PL
19F025348 12:48:56 129 67XX CHADWICK DR
19F025350 13:02:09 25,86 19XX N CLINTON ST
19F025351 13:03:00 63 CONTACT 28XX MILLBROOK DR
19F025352 13:05:12 911 HANG UP 98XX COLDWATER RD
19F025353 13:05:45 17 MOTOR CHECK 48XX KROEMER RD
19F025355 13:06:34 27 RECKLESS DRI E TILLMAN RD & ADAMS CENTER RD
19F025354 13:13:32 22N CHILD NEGLE 82XX BRIDGEWAY DR
19F025356 13:21:52 47 REMOVE ITEMS 19XX S LAFAYETTE ST
19F025366 13:23:26 16,97 2XX E COLISEUM BLVD
19F025357 13:33:28 96JO 9XX BURGESS ST
19F025358 13:40:45 25 PD ACCIDENT RIVER COVE TRL & N CLINTON ST
19F025360 13:50:16 46,96 12XX ST JOSEPH BLVD
19F025359 13:56:06 25 PD ACCIDENT S LAFAYETTE ST & E SHERWOOD TER
19F025361 13:58:07 23 VANDALISM 21XX BROADWAY
19F025362 13:59:27 22I JUV INVEST 70XX COLDWATER RD
19F025363 14:06:03 48,36 47XX SOUTHPARK DR
19F025374 14:10:16 50,ATTEMPTED 12XX CHARLOTTE AVE
19F025375 14:12:11 18 WORK TRAFFIC E STATE BLVD & LAVERNE AVE
19F025369 14:15:15 102 THREATS 63XX LIMA RD
19F025364 14:16:17 111D DOG 48XX WEISSER PARK AVE
19F025365 14:20:01 33 DISABLED VEH 306XX I 69 SB
19F025367 14:23:29 51 THEFT 39XX S CALHOUN ST
19F025372 14:29:03 96JO 50XX OLD MAYSVILLE RD
19F025368 14:30:22 51,35 60XX ARLENE AVE
19F025371 14:31:41 911 HANG UP 21XX FOX AVE
19F025373 14:37:22 48 SUSPICIOUS 38XX COLDWATER RD
19F025378 14:41:49 911 HANG UP 17XX MAGNAVOX WAY
19F025376 14:43:12 30 TRAFFIC STOP BETHEL RD & CARROLL RD
19F025377 14:43:52 30 TRAFFIC STOP N CLINTON ST & GROVE ST
19F025379 14:44:59 30 TRAFFIC STOP 25XX N CLINTON ST
19F025381 14:46:49 40A AUDIBLE 33XX MONO GENE DR
19F025380 14:47:00 46,96 21XX WEATHER WOOD PL
19F025382 14:50:52 48,36 3XX E HOOVER DR
19F025384 14:59:54 46 DOMESTIC 12XX ST JOSEPH BLVD
19F025388 15:00:32 96JO 46XX SOUTHPARK DR
19F025387 15:00:38 25 PD ACCIDENT S CLINTON ST & E BRACKENRIDGE ST
19F025383 15:00:44 30 TRAFFIC STOP S CALHOUN ST & KILLEA ST
19F025385 15:03:30 30 TRAFFIC STOP W FOURTH ST & N HARRISON ST
19F025386 15:04:10 30 TRAFFIC STOP COVENTRY LN & FALLS DR
19F025389 15:05:47 48 SUSPICIOUS 20XX CANDLEWICK CT
19F025390 15:08:44 46 DOMESTIC XX E MAIN ST
19F025391 15:09:03 46 DOMESTIC 53XX DISTRIBUTION DR
19F025392 15:10:47 30 TRAFFIC STOP E DEWALD ST & S LAFAYETTE ST
19F025394 15:10:49 25 PD ACCIDENT 52XX BROADMORE CT
19F025393 15:10:54 30 TRAFFIC STOP EWING ST & W JEFFERSON BLVD
19F025396 15:15:46 17 MOTOR CHECK 26XX E PONTIAC ST
19F025395 15:16:14 25 PD ACCIDENT W WASHINGTON BLVD & VAN BUREN ST
19F025397 15:18:34 30 TRAFFIC STOP ST JOE RD & CANTERBURY BLVD
19F025398 15:20:07 30 TRAFFIC STOP S HADLEY RD & ILLINOIS RD
19F025399 15:21:35 33J LOCKED OUT S CALHOUN ST & GRAND ST
19F025400 15:23:31 26PP PINNED ABBOTT ST & DREXEL AVE
19F025401 15:30:44 26 PI ACCIDENT 30XX I 469 NB
19F025414 15:31:25 39 STOLEN VEHIC 19XX HAZELWOOD AVE
19F025402 15:35:08 65T SUICIDE THR 15XX CASS ST UNIT 1
19F025403 15:36:44 30 TRAFFIC STOP 52XX ST JOE RD
19F025404 15:37:40 43 DISTURBANCE 2XX E PETTIT AVE
19F025405 15:42:44 30 TRAFFIC STOP ILLINOIS RD & S HADLEY RD
19F025406 15:43:19 43 DISTURBANCE 63XX LIMA RD
19F025407 15:50:12 61 RAPE 6XX TENNESSEE AVE
19F025408 15:52:08 30 TRAFFIC STOP FAIRFIELD AVE & POPLAR ST
19F025409 15:52:10 83 INFO REPORT 70XX BRACKENWOOD CT
19F025410 15:52:23 48,36 BROOKFIELD DR & TOPSFIELD LN
19F025411 15:55:41 30 TRAFFIC STOP 2XX E PETTIT AVE
19F025412 15:56:36 30 TRAFFIC STOP ST JOE RD & CANTERBURY BLVD
19F025413 15:56:46 103 UNWANTED 7XX BROADWAY
19F025424 16:01:34 30 TRAFFIC STOP BROADWAY & W WASHINGTON BLVD
19F025415 16:04:16 40A AUDIBLE 68XX WHEELOCK RD
19F025416 16:06:01 22N CHILD NEGLE COLERICK ST & SMITH ST
19F025418 16:07:33 43 DISTURBANCE 2XX E RUDISILL BLVD
19F025417 16:08:10 30 TRAFFIC STOP ST JOE RD & CANTERBURY BLVD
19F025419 16:08:50 30 TRAFFIC STOP ST JOE RD & CANTERBURY BLVD
19F025420 16:09:14 30 TRAFFIC STOP ST JOE RD & KENDALE DR
19F025421 16:09:24 48,35 1XX W EL DORADO TRL
19F025423 16:12:34 25 PD ACCIDENT N CLINTON ST & E COLISEUM BLVD
19F025422 16:13:08 30 TRAFFIC STOP 6XX W PETTIT AVE
19F025426 16:15:49 51 THEFT 23XX EBY AVE
19F025425 16:17:53 46 DOMESTIC 12XX GLENWOOD AVE
19F025427 16:24:03 30 TRAFFIC STOP S CLINTON ST & E MAIN ST
19F025432 16:28:55 46 DOMESTIC 21XX GOSHEN RD
19F025428 16:29:45 30 TRAFFIC STOP ST JOE RD & CANTERBURY BLVD
19F025488 16:30:00 50 BURGLARY 28XX BELLAIRE DR
19F025429 16:30:18 30 TRAFFIC STOP ST JOE RD & CANTERBURY BLVD
19F025430 16:30:28 103 UNWANTED 2XX E COLISEUM BLVD
19F025433 16:32:43 129 27XX E PAULDING RD
19F025434 16:32:48 80 CIVIL INVEST 7XX W COLISEUM BLVD
19F025435 16:33:04 129 25XX OAKWOOD DR
19F025436 16:33:36 65A SUICIDE ATT 25XX BRIGHTWOOD CT
19F025468 16:34:15 17 MOTOR CHECK 31XX N CLINTON ST
19F025437 16:35:32 11C CAGE CAR 17XX APPLE GLEN BLVD
19F025438 16:36:49 63 CONTACT REED RD & ST JOE CENTER RD
19F025442 16:37:40 37 PARKING VIOL 75XX SOUTHTOWN XING
19F025439 16:39:24 40A AUDIBLE 5XX E PETTIT AVE
19F025447 16:40:09 46 DOMESTIC 19XX W FOURTH ST
19F025441 16:40:59 35 PARKED VEHIC FRUEHAUF DR & E PONTIAC ST
19F025440 16:43:34 51 THEFT 2XX COUNTRY FOREST DR
19F025443 16:46:25 30 TRAFFIC STOP E STATE BLVD & N CLINTON ST
19F025444 16:47:25 51IP 4XX W CREIGHTON AVE
19F025445 16:47:35 102 THREATS 2XX E BERRY ST
19F025446 16:51:29 65T SUICIDE THR 7XX EWING ST
19F025448 16:52:44 30 TRAFFIC STOP OXFORD ST & ABBOTT ST
19F025449 16:52:53 30 TRAFFIC STOP S LAFAYETTE ST & MCKINNIE AVE
19F025450 16:53:14 65T SUICIDE THR 49XX WINCHESTER RD
19F025451 16:57:17 30 TRAFFIC STOP 3XX S CLINTON ST
19F025454 16:57:20 30 TRAFFIC STOP ADAMS CENTER RD & E PAULDING RD
19F025453 16:58:40 25HS HIT SKIP 32XX DINNEN AVE
19F025452 16:59:24 30 TRAFFIC STOP S CLINTON ST & E MAIN ST
19F025456 17:05:47 48,36 ST JOE CENTER RD & REED RD
19F025455 17:07:16 25 PD ACCIDENT MCKINNIE AVE & S MONROE ST
19F025460 17:07:57 1 MEET 34XX FELICIAN ST
19F025457 17:08:39 30 TRAFFIC STOP S CALHOUN ST & W LENOX AVE
19F025458 17:09:38 30 TRAFFIC STOP EUCLID AVE & OXFORD ST
19F025459 17:14:35 25 PD ACCIDENT E STATE BLVD & BEACON ST
19F025461 17:15:32 30 TRAFFIC STOP 3XX S CLINTON ST
19F025465 17:16:12 47 REMOVE ITEMS 27XX RAYMOND ST
19F025462 17:17:41 30 TRAFFIC STOP S CLINTON ST & E MAIN ST
19F025463 17:17:50 30 TRAFFIC STOP S CLINTON ST & E MAIN ST
19F025464 17:23:45 43,62 41XX W JEFFERSON BLVD
19F025466 17:24:56 30 TRAFFIC STOP CRESCENT AVE & ST JOE RD
19F025467 17:27:02 30 TRAFFIC STOP OXFORD ST & FRUEHAUF DR
19F025470 17:28:02 103 UNWANTED 3XX E WASHINGTON BLVD
19F025469 17:28:27 30 TRAFFIC STOP HARRIS RD & OLYMPIA CT
19F025471 17:32:04 30 TRAFFIC STOP 3XX S CLINTON ST
19F025472 17:36:08 30 TRAFFIC STOP S CLINTON ST & E MAIN ST
19F025476 17:36:17 50 BURGLARY 13XX SPY RUN AVE
19F025473 17:38:05 30 TRAFFIC STOP 2XX W PETTIT AVE
19F025474 17:38:18 43 DISTURBANCE 15XX W DUPONT RD
19F025475 17:41:11 30 TRAFFIC STOP ALEXANDER ST & OXFORD ST
19F025480 17:42:12 27 RECKLESS DRI W JEFFERSON BLVD & EXIT 302 SB
19F025478 17:42:38 30 TRAFFIC STOP 3XX S CLINTON ST
19F025481 17:43:20 65T SUICIDE THR XX COUNTRY FOREST DR
19F025479 17:43:25 48 SUSPICIOUS 54XX HEWITT LN
19F025490 17:44:22 43 DISTURBANCE 113XX LYNDHURST CT
19F025482 17:45:58 41 MAN DOWN 9XX LIBRARY PLAZA
19F025483 17:49:30 25 PD ACCIDENT TRIER RD & LAHMEYER RD
19F025485 17:49:46 101 OPEN DOOR 13XX CHARLOTTE AVE
19F025484 17:50:59 63Z ZACH CHECK 19XX CHOCHTIMAR TRL
19F025486 17:52:33 30 TRAFFIC STOP S CLINTON ST & E SUPERIOR ST
19F025487 17:54:34 30 TRAFFIC STOP S CLINTON ST & E MAIN ST
19F025489 17:56:13 30 TRAFFIC STOP S CLINTON ST & E MAIN ST
19F025493 17:58:40 47 REMOVE ITEMS 22XX EDSALL AVE
19F025495 17:59:51 51 THEFT 67XX KENNON CT
19F025491 18:01:13 63Z ZACH CHECK 26XX HILLEGAS RD
19F025492 18:01:43 30 TRAFFIC STOP S LAFAYETTE ST & E SUPERIOR ST
19F025494 18:02:43 46 DOMESTIC XX E MAIN ST
19F025497 18:08:19 103 UNWANTED 14XX FLETCHER AVE
19F025496 18:08:22 30 TRAFFIC STOP S CLINTON ST & E SUPERIOR ST
19F025498 18:12:04 48,36 9XX FARWOOD AVE
19F025499 18:12:38 30 TRAFFIC STOP E WASHINGTON BLVD & S CLINTON ST
19F025500 18:13:55 43 DISTURBANCE 11XX W STATE BLVD
19F025501 18:15:24 30 TRAFFIC STOP OXFORD ST & ALEXANDER ST
19F025502 18:16:11 30 TRAFFIC STOP S CLINTON ST & E MAIN ST
19F025503 18:17:15 30 TRAFFIC STOP S CLINTON ST & E SUPERIOR ST
19F025505 18:24:22 EMS 16XX ST MARYS AVE
19F025504 18:25:04 30 TRAFFIC STOP SPY RUN AVE & ELIZABETH ST
19F025506 18:25:11 48 SUSPICIOUS 63XX ILLINOIS RD
19F025507 18:29:22 30 TRAFFIC STOP S CLINTON ST & E MAIN ST
19F025508 18:32:45 40A AUDIBLE 102XX AUBURN PARK DR
19F025509 18:33:31 30 TRAFFIC STOP W WASHINGTON BLVD & S HARRISON ST
19F025510 18:34:16 30 TRAFFIC STOP E MAIN ST & S CLINTON ST
19F025512 18:35:12 40A AUDIBLE 4XX W WAYNE ST
19F025511 18:35:51 30 TRAFFIC STOP E CREIGHTON AVE & BOWSER AVE
19F025514 18:36:14 34 TRAFF HAZARD LIMA RD & W COLISEUM BLVD
19F025515 18:38:25 30 TRAFFIC STOP 6XX S CLINTON ST
19F025516 18:38:27 63Z ZACH CHECK 16XX HOWELL ST
19F025526 18:40:20 51 THEFT 2XX LEXINGTON AVE
19F025521 18:42:14 50 BURGLARY 33XX NEW HAVEN AVE
19F025518 18:42:46 25 PD ACCIDENT S ANTHONY BLVD & E PETTIT AVE
19F025517 18:42:47 25 PD ACCIDENT COLDWATER RD & E FERNHILL AVE
19F025519 18:44:55 20 PROBLEM UNK 4XX VIOLET CT
19F025520 18:45:40 27 RECKLESS DRI W STATE BLVD & TYLER AVE
19F025522 18:48:32 30 TRAFFIC STOP S CLINTON ST & E BERRY ST
19F025523 18:51:51 30 TRAFFIC STOP S CLINTON ST & E MAIN ST
19F025525 18:56:19 41 MAN DOWN WELLS ST & W SUPERIOR ST
19F025524 18:56:59 30 TRAFFIC STOP SPY RUN AVE & ELIZABETH ST
19F025527 18:57:48 50IP BURG I/P 32XX TWISTED BRANCH PL
19F025529 18:57:49 17 MOTOR CHECK 107XX WILD RIDGE PL
19F025528 18:58:25 30 TRAFFIC STOP S CLINTON ST & E MAIN ST
19F025531 18:59:28 48 SUSPICIOUS 11XX TECUMSEH ST
19F025530 19:00:04 30 TRAFFIC STOP COLDWATER RD & E WALLEN RD
19F025532 19:03:30 63Z ZACH CHECK 8XX TENNESSEE AVE
19F025533 19:04:27 30 TRAFFIC STOP S CLINTON ST & E SUPERIOR ST
19F025534 19:05:42 30 TRAFFIC STOP S CLINTON ST & E BERRY ST
19F025535 19:09:12 48 SUSPICIOUS 10XX COLUMBIA AVE
19F025536 19:11:11 75 PURSUIT E CREIGHTON AVE & S HANNA ST
19F025537 19:11:35 30 TRAFFIC STOP SPY RUN AVE & E FOURTH ST
19F025538 19:12:29 25 PD ACCIDENT SR 3 & WINNSBORO PASS
19F025539 19:18:39 65T SUICIDE THR 29XX GOSHEN RD
19F025540 19:19:38 30 TRAFFIC STOP W PONTIAC ST & HOAGLAND AVE
19F025541 19:20:07 25 PD ACCIDENT E DUPONT RD & PARKVIEW PLAZA DR
19F025542 19:25:20 30 TRAFFIC STOP N CLINTON ST & JACOBS AVE
19F025543 19:27:50 30 TRAFFIC STOP 52XX E STATE BLVD
19F025548 19:29:48 63 CONTACT 66XX OLD TRAIL RD
19F025544 19:30:16 25 PD ACCIDENT SPY RUN AVE & E STATE BLVD
19F025545 19:31:47 33 DISABLED VEH 29XX I 469 SB
19F025547 19:33:17 40 ALARM 43XX BLUFFTON RD
19F025546 19:34:30 30 TRAFFIC STOP E RUDISILL BLVD & ROBINWOOD DR
19F025549 19:36:08 911 HANG UP 2XX E RUDISILL BLVD
19F025560 19:37:01 63 CONTACT 4XX PINE GROVE LN UNIT B
19F025550 19:40:04 51 THEFT 115XX BITTERSWEET CREEK RUN
19F025551 19:40:34 51 THEFT 69XX HEATHERTON DR
19F025552 19:41:23 30 TRAFFIC STOP S LAFAYETTE ST & E DOUGLAS AVE
19F025553 19:42:57 30 TRAFFIC STOP 24XX W JEFFERSON BLVD
19F025558 19:44:01 27 RECKLESS DRI SR 1 & UNION CHAPEL RD
19F025554 19:45:31 43 DISTURBANCE 43XX ARLINGTON AVE
19F025556 19:45:51 46,96 40XX WENONAH LN
19F025555 19:47:18 30 TRAFFIC STOP ILLINOIS RD & S HADLEY RD
19F025557 19:49:48 46,96 53XX GOSHEN RD LOT 28
19F025559 19:52:06 43 DISTURBANCE 43XX GAYWOOD DR
19F025562 19:55:57 22RN RUNAWAY 42XX ARLINGTON AVE
19F025563 19:56:52 113 SHOTS FIRED 53XX GOSHEN RD
19F025561 20:00:16 46,96 17XX HIGH ST
19F025564 20:08:11 40A AUDIBLE 34XX E WASHINGTON BLVD
19F025565 20:09:46 30 TRAFFIC STOP GOSHEN RD & W COLISEUM BLVD
19F025566 20:22:15 30 TRAFFIC STOP ILLINOIS RD & S HADLEY RD
19F025567 20:31:21 30 TRAFFIC STOP SPRING ST & ANDREW ST
19F025568 20:32:05 30 TRAFFIC STOP IRENE AVE & POINSETTE DR
19F025569 20:36:59 22I JUV INVEST 63XX HIGH POINT RUN
19F025573 20:41:23 48 SUSPICIOUS 13XX W PACKARD AVE
19F025570 20:41:26 43 DISTURBANCE 4XX W WILLIAMS ST
19F025571 20:42:08 51 THEFT 22XX RANDALLIA DR
19F025572 20:42:11 911 HANG UP 29XX LILLIE ST
19F025574 20:50:23 30 TRAFFIC STOP S LAFAYETTE ST & E SHERWOOD TER
19F025579 20:51:56 51 THEFT 2XX LEXINGTON AVE
19F025575 20:52:04 30 TRAFFIC STOP 40XX WENONAH LN
19F025578 20:53:37 22RN RUNAWAY 4XX E COOK RD
19F025576 20:55:23 50IP BURG I/P 73XX SPRINGHILL DR
19F025577 20:56:20 30 TRAFFIC STOP 311XX I 69 NB
19F025581 21:12:12 EMS 26XX KENSINGTON BLVD
19F025580 21:14:40 30 TRAFFIC STOP N COLISEUM BLVD & VANCE AVE
19F025582 21:21:51 30 TRAFFIC STOP W COLISEUM BLVD & SPEEDWAY DR
19F025583 21:37:07 30 TRAFFIC STOP N CLINTON ST & ST JOE CENTER RD
19F025584 21:38:21 911 HANG UP 6XX LAWTON PL
19F025585 21:40:05 40A AUDIBLE 42XX LAKE AVE
19F025587 21:43:12 46 DOMESTIC 4XX E COOK RD
19F025586 21:44:28 30 TRAFFIC STOP ILLINOIS RD & S HADLEY RD
19F025588 21:44:50 63 CONTACT 13XX SINCLAIR ST
19F025589 21:49:47 129 XX E MAIN ST
19F025590 21:52:33 30 TRAFFIC STOP W DUPONT RD & DAWSONS CREEK BLVD
19F025591 21:53:46 1 MEET 7XX BROADWAY
19F025592 21:58:20 33 DISABLED VEH 29XX I 469 SB
19F025593 22:04:51 129 32XX SIMCOE CT
19F025594 22:05:19 129 32XX SIMCOE CT
19F025595 22:06:07 30 TRAFFIC STOP LIMA RD & W DUPONT RD
19F025596 22:07:52 30 TRAFFIC STOP RIVER RUN TRL & ST JOE CENTER RD
19F025597 22:10:25 30 TRAFFIC STOP NORTH DR & BARTON LN
19F025598 22:12:27 30 TRAFFIC STOP WELLS ST & W FERNHILL AVE
19F025600 22:16:22 EMS 47XX JASON DR
19F025599 22:16:29 30 TRAFFIC STOP 25XX W JEFFERSON BLVD
19F025610 22:21:34 32A DEATH NOTIF 13XX ROCKHILL ST
19F025601 22:22:28 40A AUDIBLE 54XX MEIJER DR
19F025602 22:24:01 30 TRAFFIC STOP W COLISEUM BLVD & VIRGINIA AVE
19F025603 22:24:36 30 TRAFFIC STOP BLUFFTON RD & SANDPOINT RD
19F025604 22:25:16 30 TRAFFIC STOP E COLISEUM BLVD & COLDWATER RD
19F025605 22:28:51 101 OPEN DOOR 39XX CENTRAL DR
19F025606 22:30:05 30 TRAFFIC STOP MARTIN LUTHER DR & ST JOE CENTER R
19F025607 22:32:13 30 TRAFFIC STOP HATFIELD RD & W COLISEUM BLVD
19F025608 22:34:12 911 HANG UP 76XX SADDLEWOOD DR
19F025615 22:34:42 28 DUI TAYLOR ST & BROADWAY
19F025609 22:36:47 30 TRAFFIC STOP E DUPONT RD & E LIMBERLOST TRL
19F025611 22:39:32 30 TRAFFIC STOP W STATE BLVD & SHERMAN BLVD
19F025614 22:42:28 30 TRAFFIC STOP FAIRFIELD AVE & W MASTERSON AVE
19F025613 22:44:28 48 SUSPICIOUS CAPITOL AVE & ATWOOD DR
19F025616 22:47:07 30 TRAFFIC STOP W COLISEUM BLVD & SPEEDWAY DR
19F025617 22:49:57 48 SUSPICIOUS HIGH ST & ORCHARD ST
19F025618 22:52:56 103 UNWANTED 14XX OXFORD ST
19F025619 22:55:24 30 TRAFFIC STOP TAYLOR ST & BROOKLYN AVE
19F025621 23:05:27 EMS 42XX LILLIE ST
19F025620 23:06:48 30 TRAFFIC STOP ARDMORE AVE & COVINGTON RD
19F025622 23:11:43 30 TRAFFIC STOP N COLISEUM BLVD & VANCE AVE
19F025623 23:12:42 48,36 72XX NORTHRIVER RD
19F025624 23:18:21 48,36 SCHICK ST & E WAYNE ST
19F025625 23:25:42 40A AUDIBLE 17XX BAYER AVE
19F025626 23:26:57 30 TRAFFIC STOP MAPLECREST RD & STELLHORN RD
19F025627 23:32:28 30 TRAFFIC STOP SOUTHWAYNE AVE & COTTAGE AVE
19F025628 23:33:26 61 RAPE 82XX SUNNY LN
19F025629 23:38:37 30 TRAFFIC STOP 17XX APPLE GLEN BLVD
19F025632 23:41:40 27 RECKLESS DRI W WASHINGTON BLVD & FAIRFIELD AVE
19F025630 23:42:00 43 DISTURBANCE 29XX SCHELE AVE
19F025631 23:44:32 25HS HIT SKIP N CLINTON ST & E COLISEUM BLVD
19F025633 23:46:05 43 DISTURBANCE 65XX BAY TREE DR
19F025634 23:47:05 44LM 19XX SPY RUN AVE
19F025636 23:49:01 1 MEET 57XX COVENTRY LN
19F025635 23:50:50 66 MENTALLY ILL 13XX BOONE ST